Glasgow, KY

7:39 PM CDT on May 28, 2017 (GMT -0500)
Glasgow Municipal

Weather History for KGLW - May, 2013

Change the Weather History Date:

Monday, May 13, 2013

  Actual Average Record
Temperature  
Mean Temperature 52 °F -  
Max Temperature 66 °F 77 °F 90 °F (1962)
Min Temperature 38 °F 52 °F 36 °F (1960)
Degree Days  
Heating Degree Days 13    
Growing Degree Days 2 (Base 50)    
Moisture  
Dew Point 37 °F    
Average Humidity 59    
Maximum Humidity 100    
Minimum Humidity 27    
Precipitation  
Precipitation 0.00 in - - ()
Sea Level Pressure  
Sea Level Pressure 30.20 in    
Wind  
Wind Speed 2 mph (West)    
Max Wind Speed 13 mph    
Max Gust Speed 20 mph    
Visibility 10 miles    
Events      
Averages and records for this station are not official NWS values.
T = Trace of Precipitation, MM = Missing Value Source: NWS Daily Summary

Daily Weather History Graph

Daily Weather History Graph

Search for Another Location

Airport or City:

Trip Planner

Search our weather history database for the weather conditions in past years. The results will help you decide how hot, cold, wet, or windy it might be!

Date:

Astronomy

May. 13, 2013 Rise Set
Actual Time 5:37 AM CDT 7:43 PM CDT
Civil Twilight 5:08 AM CDT 8:12 PM CDT
Nautical Twilight 4:33 AM CDT 8:47 PM CDT
Astronomical Twilight 3:54 AM CDT 9:26 PM CDT
Moon 8:23 AM CDT (5/13) 10:52 PM CDT (5/13)
Length of Visible Light 15h 04m
Length of Day
14h 06m
Waxing Crescent, 12% of the Moon is Illuminated
May 13
Waxing Crescent
May 17
First Quarter
May 24
Full
May 31
Last Quarter
Jun 8
New

Hourly Weather History & Observations

Time (CDT) Temp. Windchill Dew Point Humidity Pressure Visibility Wind Dir Wind Speed Gust Speed Precip Events Conditions
12:15 AM 41.9 °F - 41.9 °F 100% 30.18 in 10.0 mi Calm Calm - N/A   Clear
12:35 AM 41.9 °F - 41.9 °F 100% 30.18 in 10.0 mi Calm Calm - N/A   Clear
12:55 AM 41.7 °F - 41.7 °F 100% 30.18 in 10.0 mi Calm Calm - N/A   Clear
1:15 AM 41.4 °F - 41.4 °F 100% 30.17 in 10.0 mi Calm Calm - N/A   Clear
1:35 AM 40.1 °F - 40.1 °F 100% 30.17 in 10.0 mi Calm Calm - N/A   Clear
1:55 AM 40.3 °F - 40.3 °F 100% 30.17 in 10.0 mi Calm Calm - N/A   Clear
2:15 AM 39.7 °F - 39.7 °F 100% 30.16 in 10.0 mi Calm Calm - N/A   Clear
2:35 AM 39.4 °F - 39.4 °F 100% 30.16 in 10.0 mi Calm Calm - N/A   Clear
2:55 AM 38.5 °F - 38.5 °F 100% 30.17 in 10.0 mi Calm Calm - N/A   Clear
3:15 AM 38.1 °F - 38.1 °F 100% 30.17 in 10.0 mi Calm Calm - N/A   Clear
3:35 AM - - - N/A% 30.17 in 10.0 mi Calm Calm - N/A   Clear
3:55 AM - - - N/A% 30.17 in 5.0 mi Calm Calm - N/A   Haze
4:15 AM - - - N/A% 30.18 in 7.0 mi Calm Calm - N/A   Clear
4:35 AM - - - N/A% 30.18 in 7.0 mi Calm Calm - N/A   Clear
4:55 AM - - - N/A% 30.18 in 7.0 mi Calm Calm - N/A   Clear
5:15 AM - - - N/A% 30.19 in 7.0 mi Calm Calm - N/A   Clear
5:35 AM - - - N/A% 30.19 in 7.0 mi Calm Calm - N/A   Clear
5:55 AM - - - N/A% 30.20 in 5.0 mi Calm Calm - N/A   Haze
6:15 AM - - - N/A% 30.21 in 5.0 mi Calm Calm - N/A   Haze
6:35 AM - - - N/A% 30.21 in 10.0 mi Calm Calm - N/A   Clear
6:55 AM - - - N/A% 30.22 in 10.0 mi Calm Calm - N/A   Clear
7:15 AM - - - N/A% 30.23 in 10.0 mi Calm Calm - N/A   Clear
7:35 AM 44.1 °F - 44.1 °F 100% 30.23 in 10.0 mi Calm Calm - N/A   Clear
7:55 AM 46.4 °F 45.2 °F 45.1 °F 95% 30.23 in 10.0 mi SW 3.5 mph - N/A   Clear
8:15 AM 48.4 °F - 42.6 °F 80% 30.24 in 10.0 mi SW 3.5 mph - N/A   Clear
8:35 AM 50.2 °F - 42.4 °F 75% 30.24 in 10.0 mi Calm Calm - N/A   Clear
8:55 AM 52.5 °F - 43.2 °F 70% 30.25 in 10.0 mi SSW 3.5 mph - N/A   Clear
9:15 AM 54.9 °F - 43.2 °F 65% 30.25 in 10.0 mi West 3.5 mph - N/A   Clear
9:35 AM 57.0 °F - 36.9 °F 47% 30.25 in 10.0 mi WSW 5.8 mph - N/A   Clear
9:55 AM 58.1 °F - 34.3 °F 41% 30.25 in 10.0 mi West 5.8 mph - N/A   Clear
10:15 AM 59.0 °F - 31.5 °F 35% 30.25 in 10.0 mi West 5.8 mph - N/A   Clear
10:35 AM 59.5 °F - 32.7 °F 36% 30.25 in 10.0 mi NNW 5.8 mph - N/A   Clear
10:55 AM 59.9 °F - 32.2 °F 35% 30.25 in 10.0 mi WNW 3.5 mph 9.2 mph N/A   Clear
11:55 AM 61.7 °F - 32.5 °F 33% 30.24 in 10.0 mi WNW 6.9 mph - N/A   Clear
12:15 PM 62.1 °F - 33.3 °F 34% 30.24 in 10.0 mi WSW 9.2 mph - N/A   Clear
12:35 PM 63.0 °F - 33.6 °F 33% 30.23 in 10.0 mi West 4.6 mph 9.2 mph N/A   Clear
12:55 PM 63.1 °F - 33.1 °F 33% 30.23 in 10.0 mi West 6.9 mph - N/A   Scattered Clouds
1:15 PM 63.5 °F - 32.4 °F 31% 30.23 in 10.0 mi West 6.9 mph - N/A   Clear
1:35 PM 64.0 °F - 33.3 °F 32% 30.22 in 10.0 mi West 4.6 mph - N/A   Clear
1:55 PM 64.2 °F - 33.1 °F 31% 30.21 in 10.0 mi WNW 8.1 mph - N/A   Clear
2:15 PM 64.9 °F - 31.8 °F 29% 30.21 in 10.0 mi West 11.5 mph 17.3 mph N/A   Clear
2:35 PM 64.6 °F - 32.0 °F 30% 30.20 in 10.0 mi WNW 10.4 mph - N/A   Clear
3:35 PM 66.4 °F - 31.1 °F 27% 30.18 in 10.0 mi WNW 5.8 mph - N/A   Clear
3:55 PM 66.7 °F - 31.3 °F 27% 30.18 in 10.0 mi West 8.1 mph - N/A   Clear
4:15 PM 66.6 °F - 31.1 °F 27% 30.18 in 10.0 mi WNW 12.7 mph 19.6 mph N/A   Clear
4:35 PM 66.7 °F - 31.6 °F 27% 30.17 in 10.0 mi WNW 10.4 mph - N/A   Clear
4:55 PM 66.4 °F - 32.2 °F 28% 30.16 in 10.0 mi West 9.2 mph - N/A   Clear
5:15 PM 66.6 °F - 31.1 °F 27% 30.16 in 10.0 mi WNW 9.2 mph - N/A   Clear
5:35 PM 66.2 °F - 31.1 °F 27% 30.16 in 10.0 mi WNW 5.8 mph - N/A   Clear
5:55 PM 66.0 °F - 30.9 °F 27% 30.16 in 10.0 mi WNW 4.6 mph - N/A   Clear
6:35 PM 64.8 °F - 31.1 °F 28% 30.16 in 10.0 mi West 3.5 mph - N/A   Clear
7:15 PM 62.1 °F - 32.2 °F 33% 30.16 in 10.0 mi Calm Calm - N/A   Clear
7:35 PM 59.4 °F - 33.8 °F 38% 30.16 in 10.0 mi Calm Calm - N/A   Clear
7:55 PM 55.8 °F - 36.5 °F 48% 30.16 in 10.0 mi Calm Calm - N/A   Clear
8:15 PM 52.9 °F - 38.8 °F 59% 30.17 in 10.0 mi Calm Calm - N/A   Clear
8:35 PM 51.3 °F - 39.6 °F 64% 30.18 in 10.0 mi Calm Calm - N/A   Clear
8:55 PM 51.8 °F - 38.5 °F 60% 30.18 in 10.0 mi Calm Calm - N/A   Clear
9:15 PM 50.4 °F - 38.7 °F 64% 30.19 in 10.0 mi Calm Calm - N/A   Clear
9:35 PM 49.8 °F - 38.7 °F 65% 30.19 in 10.0 mi Calm Calm - N/A   Clear
9:55 PM 47.8 °F - 39.6 °F 73% 30.20 in 10.0 mi Calm Calm - N/A   Clear
10:15 PM 47.3 °F - 40.5 °F 77% 30.20 in 10.0 mi Calm Calm - N/A   Clear
10:35 PM 46.4 °F - 40.6 °F 80% 30.20 in 10.0 mi Calm Calm - N/A   Clear
10:55 PM 46.4 °F - 41.0 °F 81% 30.20 in 10.0 mi Calm Calm - N/A   Clear
11:15 PM 46.2 °F - 41.0 °F 82% 30.20 in 10.0 mi Calm Calm - N/A   Clear
11:35 PM 45.1 °F - 40.8 °F 85% 30.19 in 10.0 mi Calm Calm - N/A   Clear
11:55 PM 44.6 °F - 41.2 °F 88% 30.19 in 10.0 mi Calm Calm - N/A   Clear